(270631) = 2002 PC61

Discovered at Socorro on 2002-08-11 by LINEAR.

Orbit

Orbit type: Main Belt

Note: WebGL enabled browser required.

epoch2023-09-13.0
epoch JD2460200.5
perihelion date2023-04-08.44466
perihelion JD2460042.94466
argument of perihelion (°)137.81188
ascending node (°)194.08760
inclination (°)14.44590
eccentricity0.2248623
perihelion distance (AU)2.3025826
Tisserand w.r.t. Jupiter3.2
ΔV w.r.t. Earth (km/sec)10.5
semimajor axis (AU)2.9705466
mean anomaly (°)30.33070
mean daily motion (°/day)0.19250820
aphelion distance (AU)3.639
period (years)5.12
P-vector [x]0.87695449
P-vector [y]-0.47989851
P-vector [z]-0.02546064
Q-vector [x]0.47672189
Q-vector [y]0.86201035
Q-vector [z]0.17226261
absolute magnitude16.18
phase slope0.15
uncertainty0
referenceMPEC 2024-A55
observations used335
oppositions15
arc length (days)8273
first opposition used2001
last opposition used2023
residual rms (arc-secs)0.71
perturbers coarse indicatorM-v
perturbers precise indicator003Ek
first observation date used2001-04-14.0
last observation date used2023-12-08.0
computer nameMPCLINUX
JD of orbit computation2456639.710365
perihelion JD uncertainty (days)5.9986E-05
argument of perihelion uncertainty (°)2.1433E-05
ascending node uncertainty (°)1.8219E-05
inclination uncertainty (°)5.2272E-06
eccentricity uncertainty 4.1650E-08
perihelion distance uncertainty (AU)1.1864E-07
Minimum Orbit Intersection Distances (in AU)
for orbit epoch: 2460200.5, reference: E2023-VP5
Mercury1.92177
Venus1.59963
Earth1.31501
Mars0.96656
Jupiter1.91437
Saturn5.74869
Uranus14.8728
Neptune26.8715

Observations

339 total observations over interval: 2001 04 14.23174 – 2023 12 08.261522
These data are available for download (format description).

Date (UT) J2000 RA J2000 Dec Magn Location Ref
2001 04 14.23174 13 27 44.98 -05 53 01.7 21.0 V 691 – Steward Observatory, Kitt Peak-Spacewatch MPS 178337
2001 04 14.25272 13 27 44.04 -05 52 51.7 21.0 V 691 – Steward Observatory, Kitt Peak-Spacewatch MPS 178337
2001 04 14.27348 13 27 43.11 -05 52 42.0 21.2 V 691 – Steward Observatory, Kitt Peak-Spacewatch MPS 178337
2002 06 22.45613 20 54 20.29 +04 38 49.8 20.4   644 – Palomar Mountain/NEAT MPS 61342
2002 06 22.46649 20 54 20.22 +04 38 52.9 19.9   644 – Palomar Mountain/NEAT MPS 61342
2002 06 22.47690 20 54 20.17 +04 38 56.3 20.3   644 – Palomar Mountain/NEAT MPS 61342
2002 07 09.29246 20 49 57.59 +05 36 00.0 20.0   644 – Palomar Mountain/NEAT MPS 61342
2002 07 09.32316 20 49 56.73 +05 36 02.4 19.7   644 – Palomar Mountain/NEAT MPS 61342
2002 07 09.36418 20 49 55.56 +05 36 05.5 19.7   644 – Palomar Mountain/NEAT MPS 61342
2002 07 18.29232 20 45 11.58 +05 35 32.5 18.6   704 – Lincoln Laboratory ETS, New Mexico MPS 61342
2002 07 18.30487 20 45 11.08 +05 35 31.5 19.9   704 – Lincoln Laboratory ETS, New Mexico MPS 61342
2002 07 18.31794 20 45 10.56 +05 35 30.1 19.1   704 – Lincoln Laboratory ETS, New Mexico MPS 61342
2002 07 18.34331 20 45 09.63 +05 35 26.8 19.4   704 – Lincoln Laboratory ETS, New Mexico MPS 61342
2002 08 03.20881 20 34 32.54 +04 35 57.6 19.1   644 – Palomar Mountain/NEAT MPS 61342
2002 08 03.23733 20 34 31.29 +04 35 47.2 18.9   644 – Palomar Mountain/NEAT MPS 61342
2002 08 03.28288 20 34 29.30 +04 35 30.8 18.8   644 – Palomar Mountain/NEAT MPS 61342
2002 08 11.25004 20 29 06.02 +03 39 24.2 19.3   704 – Lincoln Laboratory ETS, New Mexico MPS 60206
2002 08 11.26551 20 29 05.33 +03 39 16.3 19.0   704 – Lincoln Laboratory ETS, New Mexico MPS 60206
2002 08 11.29632 20 29 04.09 +03 39 01.3 19.7   704 – Lincoln Laboratory ETS, New Mexico MPS 60206
2002 08 12.23435 20 28 28.41 +03 31 26.9 19.1   704 – Lincoln Laboratory ETS, New Mexico MPS 60206
2002 08 12.24945 20 28 27.79 +03 31 19.4 19.4   704 – Lincoln Laboratory ETS, New Mexico MPS 60206
2002 08 12.26455 20 28 27.21 +03 31 12.2 19.8   704 – Lincoln Laboratory ETS, New Mexico MPS 60206
2002 08 12.27962 20 28 26.57 +03 31 04.6 19.2   704 – Lincoln Laboratory ETS, New Mexico MPS 60206
2002 08 12.29474 20 28 26.00 +03 30 56.8 19.3   704 – Lincoln Laboratory ETS, New Mexico MPS 60206
2002 08 24.25272 20 22 02.04 +01 41 01.8 19.5   644 – Palomar Mountain/NEAT MPS 61342
2002 08 24.27398 20 22 01.45 +01 40 49.0 19.5   644 – Palomar Mountain/NEAT MPS 61342
2002 08 24.30515 20 22 00.60 +01 40 30.4 19.4   644 – Palomar Mountain/NEAT MPS 61342
2006 03 23.36763 13 08 56.00 -07 34 21.7 20.7 V G96 – Mt. Lemmon Survey MPS 169874
2006 03 23.37383 13 08 55.78 -07 34 18.9 21.1 V G96 – Mt. Lemmon Survey MPS 169874
2006 03 23.38017 13 08 55.53 -07 34 15.8 20.3 V G96 – Mt. Lemmon Survey MPS 169874
2006 03 23.38646 13 08 55.28 -07 34 13.9 20.6 V G96 – Mt. Lemmon Survey MPS 169874
2006 04 26.16082 12 45 45.41 -03 16 16.8 21.2 V 691 – Steward Observatory, Kitt Peak-Spacewatch MPS 169874
2006 04 26.18549 12 45 44.47 -03 16 07.0 21.5 V 691 – Steward Observatory, Kitt Peak-Spacewatch MPS 169874
2006 04 26.20652 12 45 43.68 -03 15 57.9 21.1 V 691 – Steward Observatory, Kitt Peak-Spacewatch MPS 169874
2006 05 01.289966 12 42 50.744 -02 41 40.98 21.30 V 645 – Apache Point-Sloan Digital Sky Survey MPS 390493
2006 05 01.293438 12 42 50.624 -02 41 39.58 21.89   645 – Apache Point-Sloan Digital Sky Survey MPS 390493
2006 05 19.18663 12 36 00.75 -01 07 28.4 21.5 V G96 – Mt. Lemmon Survey MPS 171593
2006 05 19.19384 12 36 00.64 -01 07 26.3 22.1 V G96 – Mt. Lemmon Survey MPS 171593
2006 05 19.20111 12 36 00.54 -01 07 24.9 21.3 V G96 – Mt. Lemmon Survey MPS 171593
2006 05 19.20830 12 36 00.43 -01 07 23.0 21.1 V G96 – Mt. Lemmon Survey MPS 171593
2008 10 27.43632 05 02 37.46 +07 47 22.6 20.7 V G96 – Mt. Lemmon Survey MPS 261368
2008 10 27.44109 05 02 37.35 +07 47 20.8 20.4 V G96 – Mt. Lemmon Survey MPS 261368
2008 10 27.44591 05 02 37.21 +07 47 18.8 21.1 V G96 – Mt. Lemmon Survey MPS 261368
2008 10 27.45069 05 02 37.10 +07 47 16.6 20.9 V G96 – Mt. Lemmon Survey MPS 261368
2011 03 14.42021 12 40 01.16 -07 18 50.4 21.1 V G96 – Mt. Lemmon Survey MPS 374780
2011 03 14.42827 12 40 00.87 -07 18 47.2 21.1 V G96 – Mt. Lemmon Survey MPS 374780
2011 03 14.43637 12 40 00.55 -07 18 44.0 21.0 V G96 – Mt. Lemmon Survey MPS 374780
2011 03 14.44436 12 40 00.22 -07 18 40.8 20.9 V G96 – Mt. Lemmon Survey MPS 374780
2011 03 31.36985 12 28 26.176 -05 14 21.43 21.1 w F51 – Pan-STARRS 1, Haleakala MPS 377098
2011 03 31.38539 12 28 25.493 -05 14 14.14 21.1 w F51 – Pan-STARRS 1, Haleakala MPS 377098
2011 03 31.40196 12 28 24.760 -05 14 06.42 21.0 w F51 – Pan-STARRS 1, Haleakala MPS 377098
2011 03 31.41747 12 28 24.075 -05 13 59.16 20.9 w F51 – Pan-STARRS 1, Haleakala MPS 377098
2012 06 11.39767 18 31 38.636 -00 34 37.50 20.0 g F51 – Pan-STARRS 1, Haleakala MPS 427232
2012 06 11.39830 18 31 38.620 -00 34 37.24 19.9 g F51 – Pan-STARRS 1, Haleakala MPS 427232
2012 06 11.40809 18 31 38.213 -00 34 34.61 20.0 g F51 – Pan-STARRS 1, Haleakala MPS 427232
2012 06 11.40873 18 31 38.180 -00 34 34.28 19.8 g F51 – Pan-STARRS 1, Haleakala MPS 427232
2012 06 11.41855 18 31 37.767 -00 34 31.64 19.7 r F51 – Pan-STARRS 1, Haleakala MPS 427232
2012 06 11.41916 18 31 37.742 -00 34 31.47 19.6 r F51 – Pan-STARRS 1, Haleakala MPS 427232
2012 06 11.42851 18 31 37.347 -00 34 28.82 19.8 r F51 – Pan-STARRS 1, Haleakala MPS 427232
2013 11 06.44062 04 04 19.334 +06 16 04.69 20.0 w F51 – Pan-STARRS 1, Haleakala MPS 486949
2013 11 06.45443 04 04 18.663 +06 15 58.59 20.0 w F51 – Pan-STARRS 1, Haleakala MPS 486949
2013 11 27.45360 03 46 59.603 +04 06 12.58 20.3 g F51 – Pan-STARRS 1, Haleakala MPS 489751
2013 11 27.46691 03 46 58.927 +04 06 08.88 20.4 g F51 – Pan-STARRS 1, Haleakala MPS 489751
2013 11 27.48050 03 46 58.240 +04 06 05.12 20.0 r F51 – Pan-STARRS 1, Haleakala MPS 489751
2013 11 27.49342 03 46 57.592 +04 06 01.64 20.0 r F51 – Pan-STARRS 1, Haleakala MPS 489751
2013 12 01.59024 03 43 43.34 +03 48 47.7 20.4 R D29 – Purple Mountain Observatory, XuYi Station MPS 490862
2013 12 01.60615 03 43 42.60 +03 48 44.0 21.3 R D29 – Purple Mountain Observatory, XuYi Station MPS 490862
2013 12 10.28233 03 37 33.792 +03 22 46.61 20.2 i F51 – Pan-STARRS 1, Haleakala MPS 491908
2013 12 10.29618 03 37 33.230 +03 22 45.06 20.0 i F51 – Pan-STARRS 1, Haleakala MPS 491908
2015 01 19.43290 08 33 54.252 +00 02 10.72 21.3 w F51 – Pan-STARRS 1, Haleakala MPS 566795
2015 01 19.44466 08 33 53.696 +00 02 12.74 21.3 w F51 – Pan-STARRS 1, Haleakala MPS 566795
2015 01 19.45645 08 33 53.138 +00 02 14.75 21.2 w F51 – Pan-STARRS 1, Haleakala MPS 566795
2015 01 19.46828 08 33 52.576 +00 02 16.80 21.2 w F51 – Pan-STARRS 1, Haleakala MPS 566795
2015 01 21.38174 08 32 23.965 +00 08 06.97 21.4 w F51 – Pan-STARRS 1, Haleakala MPS 566795
2015 01 21.39665 08 32 23.252 +00 08 10.03 21.2 w F51 – Pan-STARRS 1, Haleakala MPS 566795
2015 01 21.41001 08 32 22.625 +00 08 12.40 21.1 w F51 – Pan-STARRS 1, Haleakala MPS 566795
2015 01 21.42345 08 32 21.970 +00 08 15.12 21.2 w F51 – Pan-STARRS 1, Haleakala MPS 566795
2015 03 20.23852 08 01 56.763 +05 09 57.05 22.1 w F51 – Pan-STARRS 1, Haleakala MPS 594811
2015 03 20.26556 08 01 56.648 +05 10 05.37 22.0 w F51 – Pan-STARRS 1, Haleakala MPS 594811
2015 03 20.27910 08 01 56.582 +05 10 09.76 21.8 w F51 – Pan-STARRS 1, Haleakala MPS 594811
2015 03 22.25794 08 01 53.173 +05 20 22.24 21.9 w F51 – Pan-STARRS 1, Haleakala MPS 594811
2015 03 22.27175 08 01 53.142 +05 20 26.06 22.0 w F51 – Pan-STARRS 1, Haleakala MPS 594811
2015 03 22.28556 08 01 53.124 +05 20 30.67 21.8 w F51 – Pan-STARRS 1, Haleakala MPS 594811
2016 03 10.40604 12 08 30.483 -06 11 14.33 21.2 w F51 – Pan-STARRS 1, Haleakala MPS 692135
2016 03 10.40668 12 08 30.450 -06 11 14.16 21.2 w F51 – Pan-STARRS 1, Haleakala MPS 692135
2016 03 10.41832 12 08 29.978 -06 11 09.26 21.1 w F51 – Pan-STARRS 1, Haleakala MPS 692135
2016 03 10.43055 12 08 29.470 -06 11 04.61 21.1 w F51 – Pan-STARRS 1, Haleakala MPS 692135
2016 03 10.43119 12 08 29.449 -06 11 04.34 21.0 w F51 – Pan-STARRS 1, Haleakala MPS 692135
2016 03 10.44277 12 08 28.980 -06 10 59.49 21.0 w F51 – Pan-STARRS 1, Haleakala MPS 692135
